CAPE
0 0 0 0 0 0 0 0 0 0 0 0 0 0 0 0 0 0 0 0 0 0 0 0 0 0 0 74 284 346 219 16 115 131 128 11 70 175 383 405 368 284 102 0 0
0 0 0 0 0 0 0 0 0 0 0 0 0 0 0 0 0 0 0 0 0 0 0 0 0 0 0 0 84 378 16 16 59 87 11 27 8 264 476 527 243 147 146 12 50
0 0 0 0 0 0 0 0 0 0 0 0 0 0 0 0 0 0 0 0 0 0 0 0 0 0 0 0 0 22 18 11 0 19 45 6 25 41 504 470 266 57 72 123 181
0 0 0 0 0 0 0 0 0 0 0 0 2 1 1 0 0 0 0 0 0 0 0 0 0 0 0 0 0 14 33 36 21 49 22 22 28 21 206 582 253 57 80 218 205
0 0 0 0 0 0 0 0 0 0 0 0 1 1 0 0 0 0 0 0 0 0 0 0 0 0 0 0 0 0 23 6 19 33 70 70 17 21 728 627 443 199 181 277 228
0 0 0 0 0 0 0 0 0 0 0 0 1 1 0 0 0 0 0 0 0 0 0 0 0 0 0 0 0 0 2 59 48 3 119 238 37 40 742 579 422 315 291 304 285
0 0 0 0 0 0 0 0 0 0 0 0 1 0 0 0 0 0 0 0 0 0 0 0 0 0 0 0 0 0 0 51 96 76 95 176 58 31 42 504 430 410 356 276 332
0 0 0 0 0 0 0 0 0 0 0 0 1 1 0 0 0 0 0 0 0 0 0 0 0 0 0 0 0 0 0 5 22 63 99 86 47 0 16 36 460 495 428 385 307
0 0 0 0 0 0 0 0 0 0 0 0 0 0 0 0 0 0 0 0 0 0 0 0 0 0 0 0 0 0 0 0 1 31 99 107 7 0 0 42 300 474 568 422 396
0 0 0 0 0 0 0 0 0 0 0 0 0 0 0 0 0 0 0 0 0 0 0 0 0 0 0 0 0 0 0 1 0 1 76 68 9 0 1 136 200 159 244 498 427
0 0 0 0 0 0 0 0 0 0 0 0 0 0 0 0 0 0 0 0 0 0 0 0 0 0 0 0 0 0 0 2 2 26 43 101 13 0 105 146 218 195 66 205 459
0 0 0 0 0 0 0 0 0 0 0 0 0 0 0 0 0 0 0 0 0 0 0 0 0 0 0 0 0 0 0 0 0 0 62 184 100 33 19 26 41 94 202 132 225
0 0 0 0 0 0 0 0 0 0 0 0 0 0 0 0 0 0 0 0 0 0 0 0 0 0 0 0 0 0 0 0 0 0 61 156 119 36 0 2 21 173 131 156 132
0 0 0 0 0 0 0 0 0 0 0 0 0 0 0 0 0 0 0 0 0 0 0 0 0 0 0 0 0 0 0 0 0 11 59 17 55 60 17 13 0 88 232 104 103
0 0 0 0 0 0 0 0 0 0 0 0 0 0 0 0 0 0 0 0 0 0 0 0 0 0 0 0 0 0 0 0 0 0 2 43 43 42 70 0 7 63 318 17 147
0 0 0 0 0 0 0 0 0 0 0 0 0 0 0 0 0 0 0 0 0 0 0 0 0 0 0 0 0 0 0 0 0 0 0 0 25 25 43 16 79 171 398 286 262
0 0 0 0 0 0 0 0 0 0 0 0 0 0 0 0 0 0 0 0 0 0 0 0 0 0 0 0 0 0 0 0 0 0 0 0 6 0 24 33 140 389 554 316 340
0 0 0 0 0 0 0 0 0 0 0 0 0 0 0 0 0 0 0 0 0 0 0 0 0 0 0 0 0 0 0 0 0 0 0 0 0 0 0 0 19 385 462 559 491
0 0 0 0 0 0 0 0 0 0 0 0 0 0 0 0 0 0 0 0 0 0 0 0 0 0 0 0 0 0 0 0 0 0 0 0 0 0 0 0 0 14 450 553 557
0 0 0 0 0 0 0 0 0 0 0 0 0 0 0 0 0 0 0 0 0 0 0 0 0 0 0 0 0 0 0 0 0 0 0 0 0 0 0 0 0 0 7 183 472
0 0 0 0 0 0 0 0 0 0 0 0 0 0 0 0 0 0 0 0 0 0 0 0 0 0 0 0 0 0 0 0 0 0 0 0 0 0 0 0 0 0 0 55 209
0 0 0 0 0 0 0 0 0 0 0 0 0 0 0 0 0 0 0 0 1 0 0 0 0 0 0 0 0 0 0 0 0 0 0 0 0 0 0 0 0 0 0 13 87
0 0 0 0 0 0 0 0 0 0 0 0 0 0 0 0 0 0 0 0 0 0 0 0 0 0 0 0 0 0 0 0 0 0 0 0 0 0 0 0 0 0 0 0 51
0 0 0 0 0 0 0 0 0 0 0 0 0 0 0 3 7 11 0 11 0 0 0 32 0 0 0 0 0 0 0 0 0 0 0 0 0 0 0 0 0 0 0 0 0
0 0 0 0 0 0 1 1 4 8 6 0 0 15 3 6 7 5 0 0 0 2 0 0 0 0 0 0 0 0 0 0 0 0 0 0 0 0 0 0 0 0 0 0 0
1 1 1 2 0 0 2 0 1 0 1 0 37 5 2 0 0 0 15 0 0 0 1 0 0 0 0 0 0 0 0 0 0 0 0 0 0 0 0 0 6 0 0 0 90
4 0 1 1 2 1 0 5 4 1 25 4 12 42 1 1 5 4 1 0 0 0 0 0 0 0 0 0 0 0 0 1 0 0 0 0 0 0 0 0 0 0 0 0 0
CIN
-0 -0 -0 -0 -0 -0 -0 -0 -0 -0 -0 -0 -0 -0 -0 -0 -0 -0 -0 -0 -0 -0 -0 -0 -0 -0 -0 -105 -53 -25 -16 -29 -12 -54 -22 -54 -43 -54 -67 -116 -66 -77 -168 -33 -0
-0 -0 -0 -0 -0 -0 -0 -0 -0 -0 -0 -0 -0 -0 -0 -0 -0 -0 -0 -0 -0 -0 -0 -0 -0 -0 -0 -0 -63 -9 -29 -40 -44 -67 -56 -58 -31 -37 -40 -80 -155 -176 -133 -152 -109
-0 -0 -0 -0 -0 -0 -0 -0 -0 -0 -0 -0 -0 -0 -0 -0 -0 -0 -0 -0 -0 -0 -0 -0 -0 -0 -0 -0 -16 -61 -67 -51 -7 -78 -56 -22 -19 -23 -20 -87 -164 -229 -195 -129 -74
-0 -0 -0 -0 -0 -0 -0 -0 -0 -0 -0 -0 -0 -0 -0 -0 -0 -0 -0 -0 -0 -0 -0 -0 -0 -0 -0 -0 -0 -88 -108 -87 -116 -81 -126 -32 -34 -15 -63 -85 -221 -258 -192 -132 -89
-0 -0 -0 -0 -0 -0 -0 -0 -0 -0 -0 -0 -0 -0 -0 -0 -0 -0 -0 -0 -0 -0 -0 -0 -0 -0 -0 -0 -0 -0 -86 -43 -102 -137 -79 -81 -21 -27 -76 -134 -221 -233 -158 -96 -75
-0 -0 -0 -0 -0 -0 -0 -0 -0 -0 -0 -0 -0 -0 -0 -0 -0 -0 -0 -0 -0 -0 -0 -0 -0 -0 -0 -0 -0 -0 -9 -55 -51 -24 -73 -35 -24 -17 -55 -125 -178 -180 -149 -85 -61
-0 -0 -0 -0 -0 -0 -0 -0 -0 -0 -0 -0 -0 -0 -0 -0 -0 -0 -0 -0 -0 -0 -0 -0 -0 -0 -0 -0 -0 -0 -0 -25 -66 -47 -68 -33 -19 -17 -73 -74 -127 -120 -162 -85 -67
-0 -0 -0 -0 -0 -0 -0 -0 -0 -0 -0 -0 -0 -0 -0 -0 -0 -0 -0 -0 -0 -0 -0 -0 -0 -0 -0 -0 -0 -0 -0 -2 -7 -46 -64 -41 -98 -0 -132 -83 -48 -72 -94 -78 -89
-0 -0 -0 -0 -0 -0 -0 -0 -0 -0 -0 -0 -0 -0 -0 -0 -0 -0 -0 -0 -0 -0 -0 -0 -0 -0 -0 -0 -0 -0 -0 -0 -5 -13 -3 -26 -66 -0 -0 -128 -31 -29 -29 -49 -62
-0 -0 -0 -0 -0 -0 -0 -0 -0 -0 -0 -0 -0 -0 -0 -0 -0 -0 -0 -0 -0 -0 -0 -0 -0 -0 -0 -0 -0 -0 -0 -2 -0 -6 -14 -74 -126 -0 -62 -179 -80 -54 -28 -15 -43
-0 -0 -0 -0 -0 -0 -0 -0 -0 -0 -0 -0 -0 -0 -0 -0 -0 -0 -0 -0 -0 -0 -0 -0 -0 -0 -0 -0 -0 -0 -0 -5 -9 -13 -3 -14 -131 -0 -189 -120 -108 -80 -99 -57 -27
-0 -0 -0 -0 -0 -0 -0 -0 -0 -0 -0 -0 -0 -0 -0 -0 -0 -0 -0 -0 -0 -0 -0 -0 -0 -0 -0 -0 -0 -0 -0 -0 -0 -0 -8 -66 -81 -167 -204 -196 -184 -158 -161 -165 -35
-0 -0 -0 -0 -0 -0 -0 -0 -0 -0 -0 -0 -0 -0 -0 -0 -0 -0 -0 -0 -0 -0 -0 -0 -0 -0 -0 -0 -0 -0 -0 -0 -0 -0 -7 -40 -90 -107 -0 -133 -236 -189 -259 -175 -68
-0 -0 -0 -0 -0 -0 -0 -0 -0 -0 -0 -0 -0 -0 -0 -0 -0 -0 -0 -0 -0 -0 -0 -0 -0 -0 -0 -0 -0 -0 -0 -0 -0 -19 -5 -21 -15 -115 -131 -121 -52 -191 -179 -167 -124
-0 -0 -0 -0 -0 -0 -0 -0 -0 -0 -0 -0 -0 -0 -0 -0 -0 -0 -0 -0 -0 -0 -0 -0 -0 -0 -0 -0 -0 -0 -0 -0 -0 -36 -9 -5 -10 -68 -102 -2 -156 -196 -187 -137 -170
-0 -0 -0 -0 -0 -0 -0 -0 -0 -0 -0 -0 -0 -0 -0 -0 -0 -0 -0 -0 -0 -0 -0 -0 -0 -0 -0 -0 -0 -0 -0 -0 -0 -0 -0 -0 -2 -13 -68 -104 -97 -168 -191 -199 -161
-0 -0 -0 -0 -0 -0 -0 -0 -0 -0 -0 -0 -0 -0 -0 -0 -0 -0 -0 -0 -0 -0 -0 -0 -0 -0 -0 -0 -0 -0 -0 -0 -0 -0 -0 -0 -6 -0 -14 -36 -79 -120 -172 -179 -125
-0 -0 -0 -0 -0 -0 -0 -0 -0 -0 -0 -0 -0 -0 -0 -0 -0 -0 -0 -0 -0 -0 -0 -0 -0 -0 -0 -0 -0 -0 -0 -0 -0 -0 -0 -0 -0 -0 -0 -0 -11 -59 -115 -82 -112
-0 -0 -0 -0 -0 -0 -0 -0 -0 -0 -0 -0 -0 -0 -0 -0 -0 -0 -0 -0 -0 -0 -0 -0 -0 -0 -0 -0 -0 -0 -0 -0 -0 -0 -0 -0 -0 -0 -0 -0 -0 -22 -54 -68 -98
-0 -0 -0 -0 -0 -0 -0 -0 -0 -0 -0 -0 -0 -0 -0 -0 -0 -0 -0 -0 -0 -0 -0 -0 -0 -0 -0 -0 -0 -0 -0 -0 -0 -0 -0 -0 -0 -0 -0 -0 -0 -0 -6 -42 -62
-0 -0 -0 -0 -0 -0 -0 -0 -0 -0 -0 -0 -0 -0 -0 -0 -0 -0 -0 -0 -0 -0 -0 -0 -0 -0 -0 -0 -0 -0 -0 -0 -0 -0 -0 -0 -0 -0 -0 -0 -0 -0 -0 -38 -47
-0 -0 -0 -0 -0 -0 -0 -0 -0 -0 -0 -0 -0 -0 -0 -0 -0 -0 -0 -0 -2 -0 -0 -0 -0 -0 -0 -0 -0 -0 -0 -0 -0 -0 -0 -0 -0 -0 -0 -0 -0 -0 -0 -21 -38
-0 -0 -0 -0 -0 -0 -0 -0 -0 -0 -0 -0 -0 -0 -0 -0 -0 -1 -0 -0 -0 -0 -0 -0 -0 -0 -0 -0 -0 -0 -0 -0 -0 -0 -0 -0 -0 -0 -0 -0 -0 -0 -0 -0 -40
-0 -0 -0 -0 -0 -0 -0 -0 -0 -11 -9 -0 -0 -0 -0 -26 -6 -3 -1 -3 -0 -0 -0 -0 -0 -0 -0 -0 -0 -0 -0 -0 -0 -0 -0 -0 -0 -0 -0 -0 -0 -0 -0 -0 -0
-0 -0 -0 -0 -0 -0 -0 -0 -0 -29 -52 -0 -1 -14 -13 -9 -12 -4 -2 -0 -0 -3 -0 -0 -0 -0 -0 -0 -0 -0 -0 -0 -0 -0 -0 -0 -0 -0 -0 -0 -0 -0 -0 -0 -0
-1 -3 -0 -0 -0 -0 -1 -0 -0 -0 -3 -5 -15 -19 -44 -0 -0 -0 -11 -0 -0 -0 -0 -0 -0 -0 -0 -0 -0 -0 -0 -0 -0 -0 -0 -0 -0 -0 -0 -0 -85 -0 -0 -0 -58
-6 -0 -3 -0 -0 -0 -0 -1 -1 -0 -83 -48 -41 -17 -15 -6 -34 -7 -0 -0 -0 -0 -0 -0 -0 -0 -0 -0 -0 -0 -0 -11 -0 -0 -0 -0 -0 -0 -0 -0 -0 -0 -0 -0 -0
Wind_Speed
33 33 34 35 35 34 34 33 33 32 31 30 28 25 25 27 29 28 27 19 9 20 16 2 21 29 20 27 31 28 6 27 22 15 7 9 15 17 14 18 13 17 18 29 30
34 35 35 35 35 36 36 35 34 34 33 33 30 28 28 29 29 27 23 12 26 17 6 5 11 26 30 26 25 26 12 20 18 9 14 14 9 17 14 14 14 17 21 28 29
36 36 37 37 37 37 36 36 36 35 35 34 32 31 30 28 27 14 3 22 23 10 15 14 18 12 24 27 27 30 2 20 11 20 20 19 16 12 17 12 16 20 27 28 29
38 39 39 39 39 39 39 38 36 36 36 34 31 28 24 17 18 11 14 9 22 12 5 16 28 16 6 11 21 10 6 8 21 22 15 12 12 15 12 13 20 24 27 26 25
40 41 41 42 42 42 41 39 38 38 36 33 29 23 18 18 9 15 17 14 11 12 10 11 23 18 18 15 26 21 3 17 21 18 27 19 9 13 16 20 20 22 25 24 23
42 42 43 43 43 43 42 41 41 39 36 30 25 17 18 23 21 10 12 5 4 14 12 10 15 19 8 24 25 31 7 14 5 13 27 12 13 8 19 22 20 20 24 24 23
42 43 43 43 44 43 42 43 43 41 36 28 22 12 20 16 20 26 2 4 3 14 10 13 10 13 9 10 32 35 36 22 8 17 13 2 2 7 8 20 20 20 22 24 24
44 44 44 44 44 42 43 44 44 40 30 26 17 13 23 23 25 33 13 5 2 8 12 7 13 37 39 28 38 35 36 23 17 16 6 13 3 11 10 12 15 18 22 24 25
45 46 46 46 46 44 44 44 42 30 19 18 14 18 30 30 16 26 19 7 4 6 8 8 13 25 40 37 40 34 39 26 21 21 2 17 7 15 13 3 6 16 20 24 24
47 48 48 48 47 45 45 45 34 20 19 16 22 25 25 20 16 9 12 22 10 15 11 11 16 18 31 18 33 32 30 28 10 39 22 10 8 15 21 15 10 7 11 23 27
49 49 50 49 48 45 42 37 37 27 35 34 32 34 46 30 31 7 10 14 22 16 15 14 16 25 19 41 34 34 36 28 34 38 29 18 7 16 16 18 13 23 22 21 30
50 50 51 50 47 44 35 37 37 38 50 39 29 26 50 35 33 28 12 15 19 19 19 20 29 16 16 19 37 40 43 39 34 38 18 9 9 16 19 17 21 33 23 28 29
51 51 51 50 45 32 36 38 39 40 37 32 21 20 28 27 34 41 27 19 25 25 24 24 28 26 18 19 19 32 44 40 35 31 12 7 12 9 8 31 31 19 27 27 32
50 50 51 49 29 35 31 40 40 36 28 26 17 22 24 22 33 32 37 27 33 34 28 37 37 21 23 20 18 19 46 41 40 32 23 15 21 16 10 9 22 39 31 30 30
53 50 50 38 26 28 31 41 38 31 31 23 26 21 28 18 29 22 35 38 35 36 30 32 27 37 27 20 21 45 30 42 44 39 35 27 30 20 21 27 24 37 32 30 34
51 47 45 30 22 16 35 39 33 26 29 25 25 31 29 28 27 30 30 37 37 44 51 47 41 38 47 31 35 37 34 41 43 41 47 37 28 22 21 24 26 37 34 33 36
48 47 32 18 22 24 28 33 28 28 29 29 33 34 33 31 33 29 30 34 39 42 53 48 49 51 45 43 36 33 33 34 40 39 44 39 30 20 18 10 25 34 30 38 37
44 42 21 13 15 20 30 30 27 26 32 35 35 34 30 34 34 35 35 36 35 48 41 52 54 43 41 44 41 29 31 31 34 35 36 37 44 43 39 27 17 27 33 35 36
45 31 21 15 8 21 29 25 25 31 30 36 38 35 39 37 37 36 36 37 25 27 54 46 63 34 53 39 45 36 43 34 36 33 37 34 42 47 44 38 29 14 27 33 34
40 28 22 17 19 22 15 17 26 25 29 32 36 35 42 39 39 37 35 33 34 29 30 46 58 50 44 48 51 50 28 39 43 40 41 41 39 44 43 49 38 26 18 28 33
33 29 18 40 21 16 16 8 31 29 29 31 36 38 40 42 39 41 40 43 29 33 32 35 42 60 46 48 57 44 45 38 40 40 36 33 41 38 42 42 23 19 12 24 22
30 28 23 33 23 20 21 23 23 32 28 28 28 31 37 40 40 43 45 41 37 32 35 33 37 48 62 51 45 46 47 41 43 49 42 37 41 24 30 40 40 24 18 14 22
25 18 27 28 26 26 23 20 16 27 28 26 26 29 30 35 38 38 41 36 34 31 29 31 31 42 54 49 49 54 44 53 37 32 47 43 41 30 31 15 27 21 21 25 16
21 25 29 22 30 29 28 19 20 35 34 23 26 28 29 35 34 37 37 32 32 35 35 34 40 47 51 48 40 43 50 46 47 42 42 48 37 28 15 9 13 20 13 14 19
22 24 26 26 28 26 19 18 17 12 29 29 22 25 24 33 35 33 32 36 31 28 31 32 41 43 48 46 42 41 45 41 49 50 42 37 34 26 12 5 5 11 13 10 17
22 25 24 23 24 25 20 18 13 10 31 30 32 29 30 34 32 38 33 33 32 29 31 32 35 37 44 39 35 35 34 43 41 46 47 36 40 16 12 7 2 3 8 10 9
22 20 22 22 24 25 21 19 13 10 19 27 32 36 32 32 34 39 36 36 35 34 35 37 31 33 42 33 31 36 38 33 43 40 44 46 36 16 15 12 8 3 4 6 6
Wind_Direction
330 328 326 324 320 316 312 307 302 297 292 283 274 265 265 270 270 280 217 192 167 221 272 112 163 190 169 236 211 204 289 286 330 12 97 343 44 63 58 92 63 123 109 127 128
330 327 324 320 317 315 311 307 303 300 296 290 279 271 270 284 268 238 214 189 189 161 260 164 158 174 186 181 229 192 311 307 321 44 28 75 69 78 57 59 57 73 103 125 127
329 325 322 320 316 312 307 306 303 301 300 296 292 286 289 292 304 227 92 188 179 169 168 168 172 159 177 188 193 210 225 305 308 225 222 150 87 74 85 65 96 101 120 128 133
329 326 323 320 316 313 308 306 303 302 302 305 305 310 313 329 323 7 353 10 170 170 177 165 184 169 196 181 177 166 314 336 230 212 272 325 350 106 95 91 105 112 126 129 135
329 327 324 321 317 313 311 308 306 304 305 313 313 320 321 313 303 315 321 338 141 169 185 176 177 175 178 181 190 182 165 146 236 181 213 223 41 218 98 105 105 111 131 135 136
329 326 324 321 317 313 311 310 309 309 308 318 322 327 314 301 306 177 314 2 108 166 177 189 258 231 240 186 188 210 192 178 138 183 212 246 288 358 101 108 107 117 133 142 142
330 328 325 321 318 315 312 310 307 306 308 316 320 324 305 298 301 289 160 316 138 165 180 182 213 255 228 256 199 215 242 214 214 177 299 195 354 312 317 114 111 122 132 145 149
332 328 325 322 317 314 313 311 308 305 312 313 319 315 300 302 232 256 279 297 227 158 173 209 188 233 229 259 234 212 223 196 239 159 268 159 214 134 17 283 112 125 137 147 155
333 330 327 325 320 318 315 311 313 331 332 328 322 307 294 292 292 269 269 254 239 260 177 183 183 186 225 247 241 250 237 261 264 200 232 184 202 168 145 149 122 137 142 151 156
335 332 329 326 321 317 317 315 334 348 346 337 305 300 295 303 303 283 248 264 250 262 250 245 254 196 197 207 196 253 257 258 237 212 186 252 247 169 156 143 122 123 148 155 163
336 333 329 327 323 318 330 337 334 330 316 306 294 283 263 283 289 258 256 243 258 250 228 239 246 198 201 209 250 251 247 261 248 214 254 264 207 164 169 164 156 167 166 170 171
340 336 332 328 324 320 340 336 332 320 300 303 292 278 256 276 275 270 258 238 244 233 242 246 207 241 244 251 247 246 242 249 247 236 259 231 197 177 169 169 171 174 166 183 168
343 340 337 331 326 342 335 335 331 325 315 310 318 302 281 269 264 253 267 240 248 244 237 237 261 251 238 244 238 251 242 243 249 254 267 233 257 226 222 238 208 164 171 171 168
350 347 343 336 345 341 339 337 333 330 315 313 314 325 315 279 270 262 257 254 252 250 245 251 248 252 241 233 225 235 235 246 245 261 254 238 270 241 191 213 183 187 176 178 169
340 325 325 339 347 345 343 324 327 327 301 312 318 319 320 292 286 265 255 251 249 249 244 242 242 248 245 230 244 218 254 245 243 255 259 257 263 259 187 193 187 188 182 179 175
323 317 318 359 355 360 336 316 325 314 294 311 317 306 302 300 290 292 278 250 254 249 246 249 250 249 244 250 250 245 251 246 247 251 246 252 255 262 194 194 190 190 186 182 179
316 313 333 10 4 356 352 341 323 302 311 309 310 305 293 291 287 299 285 261 246 245 244 247 244 241 243 244 246 243 244 246 247 248 249 247 256 262 204 198 188 185 183 184 178
314 309 4 9 7 1 346 336 316 314 308 308 311 298 291 297 285 287 283 269 262 245 250 243 243 240 239 240 241 239 239 244 245 249 253 252 248 237 230 267 186 179 177 178 178
317 3 5 12 19 5 344 332 321 323 323 310 303 298 290 292 282 283 277 263 269 281 245 248 238 251 235 241 237 241 239 247 254 256 251 253 255 241 237 250 247 206 176 179 179
1 9 17 35 17 358 4 339 321 337 325 316 301 299 287 287 283 273 264 261 279 284 283 244 243 239 240 234 236 236 242 238 240 244 246 245 247 228 244 237 247 234 196 184 180
8 9 18 346 4 6 350 344 330 330 326 316 306 298 291 283 284 266 255 268 263 279 280 261 244 231 237 231 228 235 235 236 239 240 245 248 239 234 233 211 235 214 210 181 183
14 12 13 4 3 6 5 355 350 324 326 321 321 311 299 290 278 263 256 255 273 276 264 262 248 235 229 232 236 237 235 237 235 230 238 243 239 256 286 203 195 190 207 192 182
18 23 18 13 9 2 356 357 358 341 335 334 323 322 318 290 276 264 257 261 267 267 253 266 243 233 229 235 239 232 231 231 240 243 233 238 235 264 283 240 179 180 237 232 196
24 16 17 30 12 4 357 351 346 318 324 331 327 333 302 284 281 267 256 254 267 261 263 267 243 232 228 231 235 237 229 230 233 235 235 230 239 265 292 257 208 164 225 221 209
23 19 17 8 8 2 2 356 354 357 326 323 337 328 306 282 279 267 260 256 259 258 257 259 242 240 237 237 237 239 235 228 229 231 234 237 244 254 267 287 245 228 236 197 219
15 12 16 9 11 9 12 14 5 11 331 321 311 321 309 287 278 262 259 251 246 259 254 260 240 249 233 233 237 245 244 225 232 232 235 241 238 252 236 235 228 256 237 230 218
19 22 16 13 15 15 20 20 9 347 340 271 273 287 280 270 271 263 258 248 249 247 250 250 248 243 224 229 238 237 229 237 231 232 232 232 237 230 229 227 225 222 242 226 216